Location: Garzáin
(43.1301°N, 1.5373°W)
Time: 15:20:54
(UTC+00:00)

Cosmos 2173 Rocket - Pass Details

Date: 19 November 2025
Orbit: 943 x 1000 km, 83.0° (Epoch: 12 December)

Event Time Altitude Azimuth Distance (km) Brightness Sun altitude
Rises 17:57:58 0° 239° (WSW) 3,648 8.5 -14.4°
Reaches altitude 10° 18:01:46 10° 262° (W) 2,694 7.7 -15.1°
Maximum altitude 18:05:06 15° 296° (WNW) 2,351 6.7 -15.7°
Drops below altitude 10° 18:08:26 10° 329° (NNW) 2,685 6.5 -16.3°
Sets 18:12:14 0° 353° (N) 3,627 7.0 -16.9°
